Home   Weather   Chernobyl   Past weeks

Flag for Ukraine Past Weather in Chernobyl, Ukraine — Yesterday and Last 2 Weeks

Now
54 °F

Passing clouds.


Feels Like: 51 °F
Forecast: 47 / 63 °F
Wind: 8 mph from Northwest

Location: Hostomel

Current Time: Apr 30, 2017 at 9:41:48 pm

Latest Report: Apr 30, 2017 at 9:00 pm


Visibility: N/A

Pressure: 30.04 "Hg

Humidity: 72%

Dew Point: 45 °F

Location of ChernobylLocation

Past Weather in Chernobyl — Graph

°F

Chernobyl Temperature Yesterday

Maximum temperature yesterday: 77 °F (at 5:00 pm)
Minimum temperature yesterday: 55 °F (at 11:30 pm)
Average temperature yesterday: 65 °F

High & Low Weather Summary for the Past Weeks

 TemperatureHumidityPressure
High77 °F (Apr 28, 5:30 pm)93% (Apr 16, 5:00 pm)30.27 "Hg (Apr 16, 5:00 pm)
Low28 °F (Apr 21, 2:30 am)21% (Apr 28, 5:30 pm)29.68 "Hg (Apr 16, 8:00 am)
Average49 °F54%29.95 "Hg
* Reported Apr 15 8:00 pm — Apr 30 8:30 pm, Chernobyl, Weather by CustomWeather, © 2017

Note: Actual official high and low records may vary slightly from our data, if they occured in-between our weather recording intervals... More about our weather records

Advertising

Chernobyl Weather History for the Previous 24 Hours

Scroll right to see more
 ConditionsComfort  
Time TempWeatherWind HumidityBarometerVisibility
8:30 pm
Sun, Apr 30
54 °FPassing clouds.13 mph72%30.04 "HgN/A
8:00 pm55 °FPassing clouds.10 mph72%30.04 "HgN/A
7:30 pm55 °FSunny.10 mph72%30.01 "Hg10 mi
7:00 pm57 °FSunny.13 mph67%30.01 "Hg10 mi
6:30 pm59 °FSunny.13 mph63%30.01 "Hg10 mi
6:00 pm61 °FSunny.13 mph63%30.01 "Hg10 mi
5:30 pm61 °FSunny.15 mph63%30.01 "Hg10 mi
5:00 pm63 °FSunny.13 mph59%30.01 "Hg10 mi
4:30 pm63 °FSunny.13 mph59%30.01 "Hg10 mi
4:00 pm64 °FSunny.13 mph56%30.01 "Hg10 mi
3:30 pm66 °FSunny.13 mph52%30.01 "Hg10 mi
3:00 pm66 °FSunny.10 mph52%30.01 "Hg10 mi
2:30 pm64 °FSunny.10 mph56%30.01 "Hg10 mi
2:00 pm63 °FSunny.10 mph59%30.01 "Hg10 mi
1:30 pm63 °FPassing clouds.8 mph59%30.01 "HgN/A
1:00 pm61 °FPassing clouds.6 mph63%30.01 "HgN/A
12:30 pm61 °FPassing clouds.6 mph63%30.01 "HgN/A
12:00 pm57 °FPassing clouds.3 mph67%30.01 "HgN/A
11:30 am59 °FPassing clouds.6 mph68%30.01 "HgN/A
11:00 am57 °FSunny.1 mph67%30.01 "Hg10 mi
10:30 am57 °FPassing clouds.3 mph67%30.01 "HgN/A
10:00 am55 °FPassing clouds.3 mph72%30.01 "HgN/A
9:30 am55 °FPassing clouds.3 mph72%30.01 "HgN/A
9:00 am54 °FScattered clouds.3 mph77%30.01 "HgN/A
8:30 am52 °FCool.6 mph77%30.01 "HgN/A
8:00 am52 °FCool.3 mph77%30.01 "HgN/A
7:30 am52 °FCool.6 mph77%30.01 "HgN/A
7:00 am50 °FPassing clouds.6 mph82%29.98 "HgN/A
6:30 am50 °FCool.6 mph82%29.98 "HgN/A
6:00 am50 °FCool.6 mph82%29.98 "HgN/A
5:30 am50 °FCool.6 mph88%29.98 "HgN/A
5:00 am50 °FCool.6 mph88%29.98 "HgN/A
4:30 am50 °FCool.3 mph88%30.01 "HgN/A
4:00 am50 °FCool.3 mph88%29.98 "HgN/A
3:30 am50 °FCool.3 mph82%29.98 "HgN/A
3:00 am50 °FCool.3 mph82%29.98 "HgN/A
2:30 am52 °FCool.3 mph77%29.98 "HgN/A
2:00 am52 °FCool.6 mph77%29.98 "HgN/A
1:30 am54 °FCool.6 mph77%29.95 "HgN/A
1:00 am54 °FCool.8 mph77%29.95 "HgN/A
12:30 am54 °FCool.8 mph77%29.95 "HgN/A
12:00 am55 °FCool.10 mph72%29.98 "HgN/A
11:30 pm
Sat, Apr 29
55 °FCool.13 mph72%29.95 "HgN/A
10:30 pm59 °FCool.8 mph72%29.95 "HgN/A
10:00 pm61 °FCool.8 mph72%29.92 "HgN/A
9:00 pm64 °FMild.13 mph68%29.92 "HgN/A
Weather by CustomWeather, © 2017

See weather overviewHow to use our weather pages